RH
18 16 18 17 14 14 14 13 11 9 9 8 7 6 5 4 4 3 3 3 3 3 3 4 5 6 8 12 17 25 32 38 35 27 27 22 18 13 16 21 23 28 30
22 21 22 19 16 14 13 11 10 9 8 8 7 6 5 3 3 2 2 3 2 3 3 4 4 4 6 8 9 15 22 26 29 35 24 17 22 18 18 20 26 30 35
26 22 19 15 12 12 12 16 22 21 15 12 8 6 5 4 3 2 2 2 2 2 2 3 3 4 4 6 7 8 21 17 19 20 27 34 33 31 22 20 26 29 30
19 15 13 13 13 22 30 32 29 30 22 16 14 8 4 3 2 2 2 1 2 2 2 2 3 3 4 4 5 6 9 8 11 14 16 25 30 30 35 27 33 43 51
16 14 16 32 36 31 37 36 36 31 28 22 21 14 6 3 3 2 2 2 1 2 2 2 2 3 3 3 4 6 8 8 9 13 12 8 19 41 33 49 36 38 50
21 28 34 36 42 44 46 47 46 42 36 28 20 14 6 3 4 2 2 2 2 2 2 2 2 2 3 3 4 5 7 10 8 10 8 9 9 12 29 47 55 50 49
46 42 39 41 44 46 46 48 47 41 37 33 27 20 10 4 4 3 2 2 2 2 2 2 2 2 2 3 4 4 5 6 9 10 9 9 10 8 9 13 30 51 67
47 51 49 46 37 33 32 32 31 31 25 25 25 26 20 10 3 3 3 2 2 3 3 2 2 2 2 3 3 4 4 4 6 6 9 10 11 12 8 7 9 15 33
39 35 34 32 30 28 28 26 24 22 20 19 20 18 22 18 10 4 3 3 3 3 3 3 3 3 3 3 3 3 4 4 6 9 11 14 12 9 6 7 8 9 16
26 24 23 26 26 24 24 25 27 23 20 17 16 16 15 17 18 11 6 4 4 4 4 4 4 4 4 4 4 4 5 6 7 8 9 8 8 8 10 14 14 12 16
30 33 32 34 35 36 37 33 30 28 27 23 20 17 14 12 13 18 16 10 6 5 5 5 5 5 5 5 6 6 6 6 7 9 11 12 14 15 20 22 23 17 13
36 34 34 35 32 32 33 32 30 28 28 29 26 24 22 20 15 12 15 19 21 20 16 13 10 9 9 9 8 8 8 8 9 12 16 18 19 18 16 15 14 13 12
35 37 38 39 40 41 43 40 46 44 48 45 49 41 34 27 25 24 22 20 21 23 25 26 30 34 35 31 23 14 12 14 16 16 17 17 18 19 20 21 20 18 16
49 43 42 45 49 53 50 49 53 56 59 72 84 75 67 60 48 43 37 36 37 35 33 33 32 30 26 28 34 39 40 42 43 43 45 52 53 50 49 49 43 38 33
50 50 53 55 54 53 50 50 49 55 52 54 57 70 86 85 84 82 72 60 56 51 53 54 55 48 47 44 40 33 28 29 34 38 44 48 51 55 56 51 49 48 45
66 53 55 60 60 62 63 60 63 67 68 62 54 49 52 61 71 79 92 84 78 73 64 61 61 65 68 61 60 58 56 48 46 44 39 36 37 42 44 39 37 35 34
70 71 74 76 77 77 83 84 83 83 68 71 68 66 64 55 60 60 72 80 82 84 76 74 79 72 63 65 68 66 64 62 59 53 46 45 42 37 34 34 34 33 32
55 68 99 100 100 100 100 98 99 100 100 85 100 97 85 89 82 80 82 72 73 82 92 83 85 78 74 70 72 65 65 57 58 56 49 46 40 33 28 28 33 30 25
77 55 48 54 70 96 100 100 100 100 100 100 93 99 96 85 99 99 88 100 93 88 89 89 89 84 85 79 82 76 76 78 70 70 67 55 45 38 28 26 30 29 22
100 100 99 72 73 48 63 95 100 90 99 100 100 96 88 76 81 96 92 84 98 88 97 98 93 100 100 100 91 86 86 86 80 81 72 60 49 33 26 26 22 18 17
100 100 100 100 100 99 81 80 100 100 100 93 98 99 100 95 100 93 100 92 97 100 99 90 89 100 89 86 82 84 96 95 93 83 71 63 46 24 23 21 20 16 16
100 100 100 100 100 100 96 100 100 100 100 100 100 97 100 82 92 100 100 91 94 100 100 100 100 100 100 91 84 72 75 83 95 92 72 62 51 34 27 21 18 15 13
99 100 100 100 100 100 99 100 100 100 100 100 100 100 100 100 100 99 78 57 90 100 100 93 98 97 98 96 93 77 71 74 86 97 82 62 50 49 44 30 18 16 12
100 100 100 97 100 100 100 100 100 100 100 100 100 100 100 100 100 100 79 80 100 100 100 100 93 88 94 85 87 80 78 68 80 91 70 52 40 47 45 28 18 13 10
100 100 100 100 100 100 100 100 100 100 100 100 100 100 100 100 100 100 94 100 100 100 100 100 99 97 99 96 87 85 83 79 82 83 59 37 27 36 35 25 14 11 8
100 95 88 93 100 100 100 100 100 100 100 97 92 100 100 100 100 100 98 89 100 93 100 99 99 100 99 98 92 94 83 74 77 78 56 34 23 26 31 21 12 9 7
Wind_Speed
81 82 85 88 87 87 87 85 83 81 80 82 84 86 87 88 86 87 87 88 87 85 86 86 88 90 89 92 96 95 98 98 98 95 94 90 82 77 74 70 68 69 69
82 80 79 79 77 75 72 71 72 69 67 66 68 70 75 77 76 75 74 77 80 79 81 85 87 90 90 93 94 95 97 101 102 102 99 94 90 84 80 74 74 74 73
73 75 71 70 68 63 59 55 54 56 56 59 61 64 66 71 73 67 63 62 67 69 74 79 84 87 90 91 93 92 105 97 100 102 103 102 98 94 86 81 79 79 78
66 64 59 55 49 44 43 43 47 47 49 54 55 57 57 58 61 60 57 50 52 58 62 67 74 82 86 91 92 95 98 96 96 100 100 104 101 99 95 89 84 85 86
50 46 38 32 33 32 29 30 34 36 39 44 47 52 53 49 50 47 48 48 44 49 55 59 65 73 80 85 89 93 98 99 97 100 108 97 100 102 98 95 95 91 91
33 28 25 25 27 28 30 29 32 32 36 40 44 49 54 45 43 42 37 40 40 40 45 50 57 63 69 75 83 89 95 99 98 102 99 97 98 98 101 100 99 99 100
20 20 22 23 25 25 26 28 32 34 36 41 43 47 52 50 35 38 35 29 31 33 36 40 45 51 57 64 73 81 87 92 97 100 100 97 99 95 95 97 101 102 102
20 23 24 24 25 28 30 31 33 36 38 39 41 43 50 49 45 30 28 26 24 25 28 32 37 43 48 54 62 69 76 81 90 89 92 96 95 95 96 93 93 92 97
19 20 24 27 27 28 29 31 33 34 36 38 39 38 39 45 42 41 31 20 18 19 21 26 29 32 36 42 51 59 63 65 69 77 85 90 97 98 91 86 82 81 85
20 22 25 26 27 27 28 30 32 35 36 37 38 37 35 36 40 35 33 28 20 14 17 21 23 26 29 34 40 44 48 52 60 70 78 83 81 82 79 85 86 83 83
22 23 25 25 27 29 31 31 32 33 35 38 39 40 39 36 34 37 36 31 25 17 10 11 15 18 21 25 29 34 38 42 49 55 60 66 70 72 72 76 77 76 79
26 27 26 26 30 32 32 32 33 34 37 39 39 39 41 41 40 36 35 36 34 29 26 23 20 18 17 17 18 22 29 35 38 40 46 52 57 60 63 66 69 71 73
35 34 35 33 36 38 40 39 42 44 46 47 47 45 42 43 42 39 37 35 34 32 30 27 25 24 22 20 18 18 19 20 22 27 34 39 43 46 50 55 60 64 66
38 37 39 39 40 43 44 44 45 46 47 46 51 51 51 50 46 43 41 38 35 34 33 31 30 28 25 22 21 20 18 19 21 24 27 30 33 37 42 46 49 52 55
35 35 36 38 41 41 40 41 42 45 46 46 48 47 48 50 50 51 48 42 40 34 31 28 28 27 26 27 28 28 29 28 28 29 32 35 39 43 47 50 52 55 56
35 36 36 37 37 38 40 41 42 44 46 46 47 46 46 48 46 46 47 47 47 44 40 36 33 30 28 26 24 24 26 30 33 35 38 41 42 45 49 51 54 58 61
36 37 39 40 40 41 40 41 43 45 47 49 51 52 52 51 50 49 48 46 46 46 46 45 44 40 36 34 32 31 30 30 30 33 37 40 44 48 52 56 60 60 62
37 38 40 42 42 43 45 47 47 48 49 50 50 53 52 52 51 50 50 49 50 49 50 50 52 51 48 45 45 40 41 39 38 40 43 46 46 48 50 51 52 58 65
40 39 38 39 41 44 46 46 48 50 51 52 51 51 54 54 52 53 53 56 54 50 49 50 52 51 52 54 54 50 48 46 46 46 48 51 52 53 54 54 57 61 64
50 50 56 52 49 48 47 48 50 51 52 53 54 56 55 57 53 55 56 54 55 56 56 55 54 56 56 56 58 55 55 55 54 52 52 52 54 56 58 59 62 62 63
50 50 55 58 58 60 56 56 56 56 55 58 58 58 56 61 61 65 63 61 57 58 58 60 60 58 59 60 61 59 59 59 60 61 59 57 59 59 60 64 65 65 69
49 51 54 58 60 61 62 52 57 61 63 62 63 61 62 61 59 59 63 65 62 62 63 63 64 63 65 66 66 63 62 64 64 67 66 64 65 65 66 68 68 69 74
53 50 50 60 63 64 57 54 70 64 63 66 70 67 68 56 70 69 68 65 66 69 70 70 68 69 68 70 71 69 68 68 68 69 70 69 69 70 72 73 72 74 76
61 60 59 57 56 58 62 64 70 71 73 69 69 70 69 70 73 78 79 75 71 74 74 75 75 74 74 73 74 72 71 70 70 70 70 69 69 70 73 74 75 76 76
70 71 69 66 67 68 70 70 70 71 72 76 76 72 71 77 83 85 82 80 77 78 80 79 79 79 78 78 77 76 74 70 71 73 71 70 72 74 75 75 75 75 74
78 77 77 75 77 78 76 77 77 75 76 80 79 78 79 83 85 86 84 81 83 84 80 80 81 82 82 81 78 78 77 72 71 74 72 71 74 75 76 77 77 74 72
Wind_Direction
285 285 285 286 286 286 287 287 286 284 283 282 282 281 280 278 276 273 269 266 264 262 261 258 256 254 251 252 252 252 254 255 258 261 261 262 260 256 255 257 258 260 260
287 288 286 288 289 287 287 287 286 286 286 285 284 284 284 281 278 274 272 269 265 261 257 256 253 252 251 251 250 250 252 252 253 256 259 261 261 260 259 258 259 259 260
287 288 290 289 288 286 286 287 290 290 289 288 288 285 284 284 285 283 276 269 266 263 258 253 251 249 248 247 249 248 249 249 253 255 255 257 258 259 260 259 260 261 262
289 290 289 287 288 292 297 296 296 297 295 295 297 297 295 291 288 286 284 276 268 260 256 251 248 248 247 246 244 246 249 249 249 251 254 253 255 257 257 258 259 260 261
290 292 296 306 308 310 313 316 317 316 314 311 307 306 306 304 299 289 283 280 273 260 257 252 248 246 246 245 244 244 245 248 248 250 250 252 253 254 256 257 259 258 260
294 307 315 316 316 323 329 330 333 330 327 326 324 320 318 319 310 296 287 278 278 269 261 259 252 249 247 245 245 244 244 246 247 248 252 253 252 252 253 254 256 259 260
320 320 322 331 341 336 332 332 329 329 332 334 338 334 327 327 330 310 299 283 276 272 268 264 257 252 249 247 246 245 245 245 246 248 250 252 253 254 254 252 252 254 258
335 333 328 327 331 336 339 340 339 337 338 336 336 341 340 338 335 337 317 306 296 283 270 265 261 256 251 248 247 248 248 248 247 251 251 253 255 257 254 253 254 255 256
337 343 344 344 344 345 345 346 348 347 346 344 344 344 345 348 346 341 341 324 317 299 277 265 261 259 261 260 255 251 249 250 252 252 252 253 254 255 259 261 262 258 258
356 5 10 10 10 10 10 7 3 0 0 357 355 354 358 356 357 356 349 345 340 331 301 276 268 262 256 253 252 251 252 252 250 249 252 257 261 265 267 266 266 263 262
26 25 24 22 17 19 17 11 5 6 5 0 0 360 0 3 9 6 5 1 352 345 335 315 290 275 265 262 260 257 255 254 251 252 255 260 262 265 268 267 267 266 264
35 31 28 24 23 22 19 16 14 14 16 14 8 7 7 9 12 17 19 17 16 15 10 6 353 336 320 310 291 276 265 260 256 255 256 258 261 263 264 266 269 271 270
40 39 36 35 32 31 30 27 26 24 20 21 21 19 16 13 14 16 18 20 22 22 20 13 7 2 355 346 331 311 298 289 279 271 268 267 269 272 273 272 272 272 273
35 33 35 34 29 25 23 23 23 21 21 24 21 21 22 21 20 18 17 18 21 19 16 14 10 3 355 343 333 323 313 302 295 289 288 285 279 273 271 271 271 272 273
28 28 23 20 18 18 18 15 14 12 13 13 13 15 16 18 19 18 17 16 14 13 17 15 10 4 358 349 341 333 325 314 302 293 286 281 279 277 276 276 276 275 273
12 15 17 17 15 12 11 10 9 7 7 6 6 5 7 8 11 14 15 13 13 11 8 4 3 2 356 347 343 332 328 316 305 296 292 288 285 284 282 282 280 279 278
359 358 358 356 357 357 356 356 357 358 359 360 359 0 360 2 2 1 1 3 5 5 4 3 2 356 349 346 340 333 328 322 312 302 292 282 279 279 280 278 278 278 278
348 347 347 347 345 345 346 348 349 350 347 348 350 348 349 351 352 352 353 351 351 353 352 352 352 350 347 347 343 336 329 321 317 311 307 303 299 293 294 287 285 285 284
333 339 338 336 337 337 338 340 341 340 340 338 341 341 340 341 343 344 345 346 345 344 344 344 344 343 340 339 338 334 331 325 318 315 311 306 302 299 298 297 295 293 293
318 319 327 327 332 333 332 330 330 332 333 331 331 333 334 333 336 338 336 338 338 338 338 336 335 335 334 333 333 330 328 325 321 316 310 305 302 299 300 299 298 299 297
318 313 317 317 317 322 324 326 325 323 324 324 324 326 324 328 326 326 329 329 331 333 331 330 331 330 328 327 327 325 325 324 320 316 312 307 303 302 303 303 303 302 298
309 308 313 312 308 313 314 314 314 321 318 318 318 320 321 320 322 319 318 321 325 325 324 323 323 325 325 324 324 322 320 321 321 318 313 308 305 304 305 305 305 303 299
303 302 305 305 309 311 315 303 307 308 310 312 315 315 318 306 312 315 315 317 322 322 320 320 320 318 318 319 320 320 318 316 318 316 312 310 307 306 307 308 308 306 303
298 298 297 298 297 295 299 303 306 304 307 307 308 309 309 309 308 311 313 317 312 313 314 316 316 317 316 316 316 318 317 315 314 314 311 310 309 308 308 310 310 308 306
292 292 292 292 291 293 294 295 297 300 306 304 303 303 303 305 306 309 312 313 312 312 311 310 311 313 313 314 314 315 315 314 312 312 309 310 311 310 310 311 309 309 309
291 290 290 290 290 289 290 291 291 292 295 299 301 302 301 300 301 303 306 309 309 310 314 310 309 310 311 311 313 313 313 313 311 311 310 310 311 311 312 312 312 312 311